Gainesville, FL

2:21 AM EST on February 18, 2018 (GMT -0500)
Gainesville Regional

Weather History for KGNV - March, 2014

Change the Weather History Date:

Monday, March 17, 2014

  Actual Average Record
Temperature  
Mean Temperature 62 °F 62 °F  
Max Temperature 65 °F 75 °F 89 °F (1945)
Min Temperature 59 °F 50 °F 30 °F (1916)
Degree Days  
Heating Degree Days 3 4  
Month to date heating degree days 118 91  
Since 1 July heating degree days 1028 1125  
Cooling Degree Days 0 2  
Month to date cooling degree days 9 28  
Year to date cooling degree days 46 60  
Growing Degree Days 12 (Base 50)    
Moisture  
Dew Point 60 °F    
Average Humidity 89    
Maximum Humidity 100    
Minimum Humidity 78    
Precipitation  
Precipitation 2.26 in 0.14 in 2.79 in (1960)
Month to date precipitation 3.28 2.51  
Year to date precipitation 12.85 9.02  
Snow  
Snow 0.00 in 0.00 in 0.00 in ()
Month to date snowfall 0.0 0.0  
Since 1 July snowfall 0.0 0.0  
Snow Depth 0.00 in    
Sea Level Pressure  
Sea Level Pressure 29.73 in    
Wind  
Wind Speed 6 mph (NE)    
Max Wind Speed 24 mph    
Max Gust Speed 31 mph    
Visibility 6 miles    
Events Rain , Thunderstorm    
T = Trace of Precipitation, MM = Missing Value Source: NWS Daily Summary

Daily Weather History Graph

Daily Weather History Graph

Search for Another Location

Airport or City:

Trip Planner

Search our weather history database for the weather conditions in past years. The results will help you decide how hot, cold, wet, or windy it might be!

Date:

Astronomy

Mar. 17, 2014 Rise Set
Actual Time 7:36 AM EDT 7:38 PM EDT
Civil Twilight 7:12 AM EDT 8:02 PM EDT
Nautical Twilight 6:45 AM EDT 8:30 PM EDT
Astronomical Twilight 6:17 AM EDT 8:58 PM EDT
Moon 8:46 PM EDT (3/17) 7:57 AM EDT (3/17)
Length of Visible Light 12h 49m
Length of Day
12h 02m
Full, 99% of the Moon is Illuminated
Mar 17
Full
Mar 23
Last Quarter
Mar 30
New
Apr 7
First Quarter
Apr 15
Full

Hourly Weather History & Observations

Time (EDT) Temp. Dew Point Humidity Pressure Visibility Wind Dir Wind Speed Gust Speed Precip Events Conditions
12:53 AM 64.0 °F 57.9 °F 80% 29.77 in 10.0 mi ESE 6.9 mph - N/A   Overcast
1:39 AM 64.9 °F 57.9 °F 78% 29.75 in 10.0 mi East 9.2 mph - N/A   Overcast
1:53 AM 64.9 °F 57.9 °F 78% 29.73 in 10.0 mi East 8.1 mph - N/A   Overcast
2:53 AM 64.0 °F 59.0 °F 84% 29.71 in 6.0 mi East 9.2 mph - 0.00 in Rain Rain
3:09 AM 62.1 °F 59.0 °F 90% 29.73 in 9.0 mi North 15.0 mph 31.1 mph 0.00 in Rain , Thunderstorm Light Thunderstorms and Rain
3:18 AM 62.1 °F 60.1 °F 93% 29.72 in 2.5 mi NNE 10.4 mph - 0.08 in Rain , Thunderstorm Heavy Rain
3:29 AM 61.0 °F 60.1 °F 97% 29.74 in 4.0 mi NW 11.5 mph - 0.12 in Rain , Thunderstorm Heavy Rain
3:35 AM 61.0 °F 60.1 °F 97% 29.75 in 2.5 mi North 9.2 mph 19.6 mph 0.18 in Rain Heavy Rain
3:44 AM 61.0 °F 60.1 °F 97% 29.75 in 1.8 mi NNW 12.7 mph - 0.24 in Rain , Thunderstorm Heavy Rain
3:53 AM 61.0 °F 60.1 °F 97% 29.74 in 1.8 mi NNW 10.4 mph - 0.33 in Rain , Thunderstorm Heavy Rain
3:56 AM 61.0 °F 60.1 °F 97% 29.74 in 2.0 mi North 9.2 mph - 0.01 in Rain , Thunderstorm Heavy Rain
4:00 AM 61.0 °F 60.1 °F 97% 29.75 in 1.8 mi North 9.2 mph - 0.04 in Rain Heavy Rain
4:17 AM 60.1 °F 60.1 °F 100% 29.74 in 1.8 mi North 9.2 mph - 0.18 in Rain , Thunderstorm Heavy Rain
4:25 AM 60.1 °F 60.1 °F 100% 29.71 in 2.0 mi ENE 9.2 mph - 0.21 in Rain , Thunderstorm Heavy Rain
4:41 AM 60.1 °F 60.1 °F 100% 29.72 in 4.0 mi NE 8.1 mph - 0.26 in Rain , Thunderstorm Rain
4:53 AM 60.1 °F 59.0 °F 96% 29.69 in 4.0 mi NNE 9.2 mph - 0.30 in Rain , Thunderstorm Rain
4:56 AM 60.1 °F 59.0 °F 96% 29.71 in 4.0 mi NNE 8.1 mph - 0.01 in Rain Rain
5:53 AM 59.0 °F 59.0 °F 100% 29.69 in 4.0 mi NNE 8.1 mph - 0.17 in Rain Rain
6:02 AM 59.0 °F 57.9 °F 96% 29.69 in 2.5 mi NE 10.4 mph - 0.09 in Rain Heavy Rain
6:10 AM 59.0 °F 57.9 °F 96% 29.70 in 5.0 mi NNE 8.1 mph - 0.11 in Rain Light Rain
6:33 AM 59.0 °F 57.9 °F 96% 29.71 in 2.5 mi North 6.9 mph - 0.16 in Rain Heavy Rain
6:40 AM 59.0 °F 57.9 °F 96% 29.72 in 3.0 mi North 8.1 mph - 0.21 in Rain Rain
6:48 AM 59.0 °F 57.2 °F 94% 29.72 in 2.5 mi North 10.4 mph - 0.25 in Rain Heavy Rain
6:51 AM 59.0 °F 57.2 °F 94% 29.72 in 1.8 mi North 8.1 mph - 0.31 in Rain Heavy Rain
6:53 AM 59.0 °F 57.9 °F 96% 29.71 in 1.8 mi North 8.1 mph - 0.34 in Rain Heavy Rain
7:03 AM 59.0 °F 57.9 °F 96% 29.71 in 2.5 mi North 10.4 mph - 0.08 in Rain Heavy Rain
7:11 AM 59.0 °F 57.9 °F 96% 29.71 in 4.0 mi North 11.5 mph - 0.10 in Rain Rain
7:28 AM 59.0 °F 57.9 °F 96% 29.71 in 2.0 mi NE 9.2 mph - 0.21 in Rain Heavy Rain
7:53 AM 59.0 °F 59.0 °F 100% 29.72 in 2.0 mi NNE 4.6 mph - 0.29 in Rain Light Rain
7:56 AM 60.1 °F 59.0 °F 96% 29.72 in 6.0 mi NE 5.8 mph - 0.00 in Rain Light Rain
8:04 AM 60.1 °F 57.9 °F 93% 29.73 in 3.0 mi NE 5.8 mph - 0.01 in Rain Light Rain
8:53 AM 60.1 °F 59.0 °F 96% 29.77 in 7.0 mi ENE 3.5 mph - 0.05 in Rain Light Rain
9:16 AM 60.1 °F 59.0 °F 96% 29.76 in 10.0 mi NE 4.6 mph - 0.00 in   Overcast
9:53 AM 61.0 °F 59.0 °F 93% 29.76 in 10.0 mi ENE 8.1 mph - 0.00 in   Overcast
10:49 AM 62.6 °F 60.8 °F 94% 29.77 in 10.0 mi Variable 5.8 mph - 0.00 in Rain Light Rain
10:53 AM 62.1 °F 60.1 °F 93% 29.77 in 9.0 mi East 3.5 mph - 0.01 in Rain Light Rain
11:02 AM 61.0 °F 60.1 °F 97% 29.78 in 7.0 mi Variable 4.6 mph - 0.00 in Rain Light Rain
11:37 AM 61.0 °F 60.1 °F 97% 29.78 in 1.8 mi NE 4.6 mph - 0.08 in Rain Rain
11:40 AM 61.0 °F 60.1 °F 97% 29.78 in 2.0 mi NE 4.6 mph - 0.08 in Rain Rain
11:49 AM 60.8 °F 60.8 °F 100% 29.78 in 5.0 mi North 4.6 mph - 0.10 in Rain Light Rain
11:53 AM 62.1 °F 60.1 °F 93% 29.77 in 7.0 mi NNE 6.9 mph - 0.10 in Rain Light Rain
12:14 PM 62.1 °F 61.0 °F 96% 29.77 in 10.0 mi East 5.8 mph - 0.01 in Rain Light Rain
12:53 PM 62.1 °F 61.0 °F 96% 29.76 in 10.0 mi Variable 5.8 mph - 0.06 in Rain Light Rain
1:00 PM 62.1 °F 61.0 °F 96% 29.76 in 9.0 mi NNW 4.6 mph - 0.01 in Rain Light Rain
1:22 PM 62.1 °F 61.0 °F 96% 29.78 in 2.5 mi WNW 6.9 mph - 0.04 in Rain Heavy Rain
1:27 PM 62.1 °F 61.0 °F 96% 29.78 in 1.8 mi NW 6.9 mph - 0.07 in Rain Heavy Rain
1:40 PM 62.1 °F 61.0 °F 96% 29.75 in 1.5 mi North 11.5 mph - 0.18 in Rain Heavy Rain
1:53 PM 61.0 °F 60.1 °F 97% 29.77 in 1.2 mi NE 6.9 mph - 0.31 in Rain Heavy Rain
2:11 PM 62.1 °F 60.1 °F 93% 29.77 in 2.0 mi NNE 5.8 mph - 0.13 in Rain Heavy Rain
2:26 PM 62.1 °F 61.0 °F 96% 29.75 in 4.0 mi ENE 5.8 mph - 0.17 in Rain Light Rain
2:53 PM 62.1 °F 61.0 °F 96% 29.74 in 7.0 mi ESE 5.8 mph - 0.19 in Rain Light Rain
3:53 PM 63.0 °F 62.1 °F 97% 29.72 in 10.0 mi East 5.8 mph - 0.00 in Rain Light Rain
4:05 PM 63.0 °F 62.1 °F 97% 29.72 in 10.0 mi ENE 5.8 mph - 0.00 in   Overcast
4:53 PM 63.0 °F 61.0 °F 93% 29.70 in 10.0 mi East 5.8 mph - 0.00 in Rain Light Rain
5:53 PM 62.1 °F 61.0 °F 96% 29.70 in 10.0 mi East 4.6 mph - 0.04 in Rain Light Rain
6:53 PM 62.1 °F 61.0 °F 96% 29.71 in 10.0 mi North - - 0.00 in   Overcast
7:53 PM 61.0 °F 60.1 °F 97% 29.70 in 10.0 mi SE 8.1 mph - 0.00 in Rain Light Rain
8:53 PM 61.0 °F 60.1 °F 97% 29.71 in 10.0 mi SE 5.8 mph - 0.01 in   Overcast
9:53 PM 62.1 °F 61.0 °F 96% 29.70 in 10.0 mi East 4.6 mph - N/A   Overcast
10:02 PM 62.1 °F 61.0 °F 96% 29.70 in 10.0 mi NE 4.6 mph - N/A   Overcast
10:13 PM 61.0 °F 60.1 °F 97% 29.70 in 10.0 mi East 3.5 mph - N/A   Overcast
10:45 PM 61.0 °F 61.0 °F 100% 29.69 in 10.0 mi East 3.5 mph - N/A   Overcast
10:53 PM 61.0 °F 60.1 °F 97% 29.68 in 10.0 mi Calm Calm - N/A   Overcast
11:53 PM 61.0 °F 60.1 °F 97% 29.70 in 9.0 mi NNW 8.1 mph - 0.06 in Rain Light Rain